This demonstration page uses our WeatherBlox Daily Observations layout. Learn more.

Left ArrowRight Arrow

41.55636, -103.73856

Hourly Observations for July 12, 2015

Temp ( °F °C ) Dew Point ( °F °C ) Humidity (%) Winds ( mph kmh ) Pressure ( in mb ) Visibility ( mi km ) Precip ( " mm )
12:53 am 00:53 Clear 72 22.2 48 8.9 43 43 VRB 6 9 29.86 1011 10 16.0934 0 0
1:53 am 01:53 Clear 62 16.7 53 11.7 73 73 N 8 13 29.87 1012 10 16.0934 0 0
2:53 am 02:53 Clear 60 15.6 53 11.7 78 78 SE 6 9 29.9 1013 10 16.0934 0 0
3:53 am 03:53 Clear 59 15 53 11.7 81 81 N 6 9 29.9 1013 10 16.0934 0 0
4:53 am 04:53 Clear 58 14.4 53 11.7 84 84 N 3 6 29.91 1013 10 16.0934 0 0
5:53 am 05:53 Sunny 56 13.3 53 11.7 90 90 NW 5 7 29.93 1013 10 16.0934 0 0
6:53 am 06:53 Sunny 65 18.3 55 12.8 70 70 Calm 29.92 1013 10 16.0934 0 0
7:53 am 07:53 Sunny 71 21.7 53 11.7 53 53 WSW 5 7 29.92 1013 10 16.0934 0 0
8:53 am 08:53 Sunny 76 24.4 52 11.1 43 43 WSW 6 9 29.93 1014 10 16.0934 0 0
9:53 am 09:53 Sunny 81 27.2 52 11.1 37 37 W 10 17 29.92 1013 10 16.0934 0 0
10:53 am 10:53 Sunny 85 29.4 53 11.7 33 33 W 9 15 29.9 1013 10 16.0934 0 0
11:53 am 11:53 Sunny 87 30.6 52 11.1 30 30 W 13 20 29.9 1013 10 16.0934 0 0
12:22 pm 12:22 Sunny 88 31 52 11 29 29 WNW 12 19 29.74 1007 10 16.0934 0 0
12:53 pm 12:53 Sunny 90 32.2 51 10.6 26 26 WNW 15 24 29.87 1012 10 16.0934 0 0
1:53 pm 13:53 Sunny 87 30.6 50 10 28 28 WNW 10 17 29.88 1012 10 16.0934 0 0
2:53 pm 14:53 Sunny 92 33.3 52 11.1 26 26 WNW 10 17 29.85 1011 10 16.0934 0 0
3:53 pm 15:53 Sunny 87 30.6 50 10 28 28 W 8 13 29.85 1011 10 16.0934 0 0
4:53 pm 16:53 Sunny 90 32.2 52 11.1 27 27 WNW 8 13 29.83 1010 10 16.0934 0 0
5:53 pm 17:53 Sunny 90 32.2 54 12.2 29 29 W 10 17 29.82 1010 10 16.0934 0 0
6:53 pm 18:53 Sunny 83 28.3 58 14.4 43 43 WNW 5 7 29.82 1010 10 16.0934 0 0
7:53 pm 19:53 Sunny 83 28.3 57 13.9 41 41 W 7 11 29.82 1010 10 16.0934 0 0
8:53 pm 20:53 Clear 73 22.8 55 12.8 53 53 WNW 6 9 29.84 1010 10 16.0934 0 0
9:53 pm 21:53 Clear 69 20.6 55 12.8 61 61 WNW 6 9 29.86 1011 10 16.0934 0 0
10:53 pm 22:53 Clear 66 18.9 52 11.1 61 61 NW 8 13 29.85 1011 10 16.0934 0 0
11:53 pm 23:53 Clear 70 21.1 46 7.8 42 42 NW 12 19 29.82 1010 10 16.0934 0 0

Powered by AerisWeather